EW5168 Weather Reports


time (UTC)temp
C
wind
direction
speed
KPH
gust
KPH
rain 1hr
cm
rain 24hr
cm
rain mn
cm
humidity
%
barometer
mb
20260508023656 16 170 0.0 0.0 0.00 0.00 0.00 1 1014.4
20260508023155 16 170 0.0 0.0 0.00 0.00 0.00 1 1014.3
20260508022659 16 170 0.0 0.0 0.00 0.00 0.00 1 1014.7
20260508022655 16 170 0.0 0.0 0.00 0.00 0.00 1 1014.5
20260508021655 16 170 0.0 0.0 0.00 0.00 0.00 1 1014.7
20260508021200 16 170 0.0 0.0 0.00 0.00 0.00 1 1014.4
20260508021156 16 170 0.0 0.0 0.00 0.00 0.00 1 1014.4
20260508020154 16 169 0.0 0.0 0.00 0.00 0.00 1 1014.4
20260508015655 16 170 0.0 0.0 0.00 0.00 0.00 1 1014.6
20260508015155 16 169 0.0 0.0 0.00 0.00 0.00 1 1014.7
20260508014655 16 170 0.0 0.0 0.00 0.00 0.00 1 1014.4
20260508014200 16 169 0.0 0.0 0.00 0.00 0.00 1 1014.3
20260508014156 16 169 0.0 0.0 0.00 0.00 0.00 1 1014.3
20260508013156 16 169 0.0 0.0 0.00 0.00 0.00 1 1014.3
20260508012656 17 170 0.0 0.0 0.00 0.00 0.00 1 1014.3
20260508012155 17 169 0.0 0.0 0.00 0.00 0.00 1 1014.6
20260508011655 17 170 0.0 0.0 0.00 0.00 0.00 1 1014.6
20260508011155 17 169 0.0 0.0 0.00 0.00 0.00 1 1014.6
20260508010654 17 169 0.0 0.0 0.00 0.00 0.00 1 1014.6
20260508010153 17 170 0.0 0.0 0.00 0.00 0.00 1 1014.7
20260508005653 17 170 0.0 0.0 0.00 0.00 0.00 1 1014.9
20260508005152 17 169 0.0 0.0 0.00 0.00 0.00 1 1015.0
20260508004653 17 169 0.0 0.0 0.00 0.00 0.00 1 1015.0
20260508004153 17 169 0.0 0.0 0.00 0.00 0.00 1 1015.0
20260508003653 17 169 0.0 0.0 0.00 0.00 0.00 2 1015.2
20260508003153 17 169 0.0 1.6 0.00 0.00 0.00 4 1015.1
20260508002652 17 169 0.0 1.6 0.00 0.00 0.00 5 1015.3
20260508002153 17 110 0.0 0.0 0.00 0.00 0.00 6 1015.5
20260508001653 17 110 0.0 3.2 0.00 0.00 0.00 9 1015.2
20260508001154 18 110 0.0 3.2 0.00 0.00 0.00 11 1014.1
20260508000653 18 110 0.0 1.6 0.00 0.00 0.00 14 1014.4
20260508000153 18 110 0.0 1.6 0.00 0.00 0.00 15 1014.7
20260507235653 18 110 0.0 1.6 0.00 0.00 0.00 17 1014.8
20260507235152 18 110 0.0 3.2 0.00 0.00 0.00 18 1014.7
20260507234650 18 110 0.0 3.2 0.00 0.00 0.00 20 1014.4
20260507234150 18 110 0.0 3.2 0.00 0.00 0.00 20 1014.7
20260507233645 18 110 0.0 0.0 0.00 0.00 0.00 22 1014.7
20260507233145 18 110 0.0 0.0 0.00 0.00 0.00 24 1014.8
20260507232645 18 110 0.0 0.0 0.00 0.00 0.00 26 1015.3
20260507232147 18 110 0.0 0.0 0.00 0.00 0.00 27 1015.2
20260507232142 18 110 0.0 0.0 0.00 0.00 0.00 26 1015.2
20260507231746 18 110 0.0 0.0 0.00 0.00 0.00 27 1015.6
20260507231246 18 110 0.0 0.0 0.00 0.00 0.00 26 1015.7
20260507230139 18 110 0.0 3.2 0.00 0.00 0.00 27 1015.2
20260507225639 18 110 0.0 3.2 0.00 0.00 0.00 27 1015.2
20260507225138 18 147 0.0 1.6 0.00 0.00 0.00 27 1015.1
20260507224641 18 147 0.0 0.0 0.00 0.00 0.00 26 1015.7
20260507224637 18 147 0.0 0.0 0.00 0.00 0.00 26 1015.5
20260507223740 18 105 0.0 4.8 0.00 0.00 0.00 26 1015.0
20260507223639 18 147 0.0 1.6 0.00 0.00 0.00 27 1015.7
20260507223635 18 147 0.0 3.2 0.00 0.00 0.00 27 1015.7
20260507222135 18 105 0.0 4.8 0.00 0.00 0.00 25 1015.2
20260507221635 18 191 0.0 3.2 0.00 0.00 0.00 25 1015.4
20260507221133 18 191 0.0 3.2 0.00 0.00 0.00 25 1015.4
20260507220636 18 191 0.0 0.0 0.00 0.00 0.00 14 1016.2
20260507220632 18 191 0.0 1.6 0.00 0.00 0.00 20 1015.6
20260507220235 18 191 0.0 0.0 0.00 0.00 0.00 20 1015.9
20260507215129 18 191 0.0 1.6 0.00 0.00 0.00 16 1016.3
20260507214629 18 191 0.0 1.6 0.00 0.00 0.00 17 1016.4
20260507214128 18 191 0.0 1.6 0.00 0.00 0.00 17 1015.9
20260507213629 18 191 0.0 0.0 0.00 0.00 0.00 20 1015.9
20260507213132 18 191 0.0 0.0 0.00 0.00 0.00 24 1015.8
20260507213127 18 191 0.0 0.0 0.00 0.00 0.00 27 1016.7
20260507212127 18 191 0.0 1.6 0.00 0.00 0.00 31 1016.7
20260507211631 18 169 0.0 3.2 0.00 0.00 0.00 35 1016.2
20260507211626 18 191 0.0 1.6 0.00 0.00 0.00 35 1017.1
20260507210627 18 153 0.0 4.8 0.00 0.00 0.00 36 1016.4
20260507210127 18 72 0.0 4.8 0.00 0.00 0.00 36 1015.8
20260507205630 18 67 1.6 4.8 0.00 0.00 0.00 36 1015.4
20260507205626 18 67 0.0 4.8 0.00 0.00 0.00 36 1015.6
20260507204624 18 68 1.6 4.8 0.00 0.00 0.00 36 1015.4
20260507204123 19 53 0.0 1.6 0.00 0.00 0.00 36 1016.1
20260507203624 19 53 0.0 3.2 0.00 0.00 0.00 36 1016.4
20260507203124 19 57 0.0 3.2 0.00 0.00 0.00 37 1016.5
20260507202625 19 15 0.0 3.2 0.00 0.00 0.00 36 1016.5
20260507202124 19 42 0.0 3.2 0.00 0.00 0.00 36 1016.7
20260507201621 19 321 0.0 4.8 0.00 0.00 0.00 36 1016.7
20260507201120 19 79 1.6 4.8 0.00 0.00 0.00 35 1016.6
20260507200624 20 89 0.0 6.4 0.00 0.00 0.00 35 1017.0
20260507200620 19 87 1.6 6.4 0.00 0.00 0.00 35 1016.5
20260507200225 20 306 0.0 1.6 0.00 0.00 0.00 34 1017.0
20260507195120 19 333 0.0 1.6 0.00 0.00 0.00 34 1017.1
20260507194622 19 332 1.6 4.8 0.00 0.00 0.00 34 1016.6
20260507194618 19 26 0.0 3.2 0.00 0.00 0.00 34 1017.0
20260507193622 19 69 1.6 6.4 0.00 0.00 0.00 33 1016.6
20260507193618 19 64 1.6 6.4 0.00 0.00 0.00 34 1016.6
20260507192617 19 76 0.0 4.8 0.00 0.00 0.00 33 1016.8
20260507192113 18 331 0.0 3.2 0.00 0.00 0.00 32 1017.3
20260507191618 18 60 1.6 4.8 0.00 0.00 0.00 34 1017.3
20260507191614 18 331 0.0 3.2 0.00 0.00 0.00 34 1017.5
20260507190614 18 80 1.6 6.4 0.00 0.00 0.00 34 1017.4
20260507190114 18 75 0.0 6.4 0.00 0.00 0.00 33 1017.3
20260507185613 18 355 0.0 4.8 0.00 0.00 0.00 33 1017.5
20260507185115 18 35 0.0 4.8 0.00 0.00 0.00 33 1017.7
20260507185111 18 61 1.6 8.0 0.00 0.00 0.00 33 1017.9
20260507184715 18 33 1.6 8.0 0.00 0.00 0.00 33 1017.7
20260507183610 18 55 1.6 12.9 0.00 0.00 0.00 32 1017.7
20260507183110 18 41 1.6 12.9 0.00 0.00 0.00 31 1017.6
20260507182610 18 0 1.6 9.7 0.00 0.00 0.00 30 1017.3
20260507182109 18 60 1.6 9.7 0.00 0.00 0.00 31 1017.3
20260507181608 17 319 1.6 4.8 0.00 0.00 0.00 32 1017.4
20260507181108 17 333 1.6 4.8 0.00 0.00 0.00 31 1017.6
20260507180607 17 355 1.6 4.8 0.00 0.00 0.00 32 1017.4
20260507180108 17 31 1.6 9.7 0.00 0.00 0.00 32 1017.4
20260507175604 17 64 1.6 9.7 0.00 0.00 0.00 31 1017.4
20260507175104 17 69 1.6 3.2 0.00 0.00 0.00 31 1018.0
20260507174604 17 71 1.6 6.4 0.00 0.00 0.00 31 1018.2
20260507174103 17 61 1.6 6.4 0.00 0.00 0.00 31 1018.0
20260507173603 17 79 0.0 4.8 0.00 0.00 0.00 30 1018.6
20260507173102 17 79 0.0 4.8 0.00 0.00 0.00 30 1018.9
20260507172602 17 67 0.0 3.2 0.00 0.00 0.00 30 1018.8
20260507172100 17 26 0.0 3.2 0.00 0.00 0.00 30 1018.8
20260507171600 17 29 0.0 4.8 0.00 0.00 0.00 30 1019.0
20260507171104 16 62 0.0 4.8 0.00 0.00 0.00 31 1018.6
20260507171100 17 319 0.0 4.8 0.00 0.00 0.00 30 1019.2
20260507170059 16 70 1.6 4.8 0.00 0.00 0.00 31 1018.7
20260507165559 16 33 1.6 4.8 0.00 0.00 0.00 31 1018.5
20260507165100 16 64 1.6 3.2 0.00 0.00 0.00 31 1018.8
20260507164604 16 33 1.6 6.4 0.00 0.00 0.00 31 1018.6
20260507164559 16 17 1.6 6.4 0.00 0.00 0.00 31 1018.9
20260507163600 16 55 0.0 6.4 0.00 0.00 0.00 31 1018.2
20260507163100 16 319 1.6 6.4 0.00 0.00 0.00 30 1018.6
20260507162601 16 307 1.6 6.4 0.00 0.00 0.00 30 1018.8
20260507162059 16 79 1.6 6.4 0.00 0.00 0.00 30 1018.6
20260507161604 16 63 1.6 4.8 0.00 0.00 0.00 29 1018.3
20260507161600 16 24 1.6 4.8 0.00 0.00 0.00 29 1018.7
20260507160558 16 76 1.6 8.0 0.00 0.00 0.00 29 1018.5
20260507160057 16 10 3.2 8.0 0.00 0.00 0.00 29 1018.5
20260507155058 16 65 3.2 9.7 0.00 0.00 0.00 29 1018.3
20260507154558 16 94 3.2 12.9 0.00 0.00 0.00 28 1018.1
20260507154055 16 46 1.6 12.9 0.00 0.00 0.00 28 1018.0
20260507153555 16 38 1.6 4.8 0.00 0.00 0.00 27 1018.5
20260507153056 16 5 1.6 4.8 0.00 0.00 0.00 26 1018.7
20260507152556 16 54 3.2 9.7 0.00 0.00 0.00 27 1018.6
20260507152055 16 68 3.2 9.7 0.00 0.00 0.00 26 1018.9
20260507151559 15 62 3.2 11.3 0.00 0.00 0.00 24 1018.8
20260507151555 15 86 1.6 6.4 0.00 0.00 0.00 25 1019.0
20260507150556 15 42 3.2 11.3 0.00 0.00 0.00 22 1018.7
20260507150055 15 78 1.6 9.7 0.00 0.00 0.00 22 1018.7
20260507145555 15 65 1.6 14.5 0.00 0.00 0.00 20 1018.5
20260507145055 15 15 1.6 14.5 0.00 0.00 0.00 18 1018.7
20260507144555 15 355 3.2 8.0 0.00 0.00 0.00 15 1018.8
20260507144100 14 28 1.6 6.4 0.00 0.00 0.00 6 1018.5
20260507144056 14 78 3.2 8.0 0.00 0.00 0.00 10 1018.5
20260507143059 13 28 1.6 11.3 0.00 0.00 0.00 1 1018.2
20260507143055 13 29 3.2 11.3 0.00 0.00 0.00 4 1018.2
20260507142054 13 24 1.6 8.0 0.00 0.00 0.00 1 1018.2
20260507141554 13 32 1.6 8.0 0.00 0.00 0.00 1 1018.5
20260507141054 13 5 1.6 6.4 0.00 0.00 0.00 1 1018.6
20260507140552 13 50 1.6 6.4 0.00 0.00 0.00 1 1018.8
20260507140053 13 55 1.6 8.0 0.00 0.00 0.00 1 1019.0
20260507135558 13 55 1.6 3.2 0.00 0.00 0.00 1 1019.1
20260507135554 13 44 1.6 8.0 0.00 0.00 0.00 1 1019.1
20260507135159 13 331 1.6 4.8 0.00 0.00 0.00 1 1019.1
20260507134057 13 344 1.6 4.8 0.00 0.00 0.00 1 1019.4
20260507134053 13 13 1.6 4.8 0.00 0.00 0.00 1 1019.0
20260507133052 13 336 1.6 4.8 0.00 0.00 0.00 1 1019.4
20260507132553 13 13 1.6 8.0 0.00 0.00 0.00 1 1019.4
20260507132054 13 329 1.6 8.0 0.00 0.00 0.00 1 1019.2
20260507131553 13 334 1.6 4.8 0.00 0.00 0.00 1 1019.4
20260507131053 13 320 1.6 6.4 0.00 0.00 0.00 1 1019.1
20260507130551 13 46 1.6 6.4 0.00 0.00 0.00 1 1019.2
20260507130052 13 5 1.6 6.4 0.00 0.00 0.00 1 1019.0
20260507125550 13 19 1.6 8.0 0.00 0.00 0.00 1 1018.9
20260507125049 13 329 1.6 8.0 0.00 0.00 0.00 1 1018.8
20260507124549 13 318 1.6 6.4 0.00 0.00 0.00 1 1018.7
20260507124049 13 323 1.6 6.4 0.00 0.00 0.00 1 1018.5
20260507123549 13 355 0.0 4.8 0.00 0.00 0.00 1 1018.6
20260507123049 13 323 0.0 3.2 0.00 0.00 0.00 1 1018.9
20260507122553 13 325 1.6 9.7 0.00 0.00 0.00 1 1019.0
20260507122549 13 309 0.0 9.7 0.00 0.00 0.00 1 1018.9
20260507121549 13 317 1.6 6.4 0.00 0.00 0.00 1 1019.0
20260507121054 13 325 0.0 4.8 0.00 0.00 0.00 1 1018.7
20260507121050 13 323 0.0 4.8 0.00 0.00 0.00 1 1018.7
20260507120050 13 23 0.0 3.2 0.00 0.00 0.00 1 1018.6
20260507115555 13 329 1.6 4.8 0.00 0.00 0.00 1 1018.3
20260507115549 13 44 0.0 4.8 0.00 0.00 0.00 1 1018.2
20260507114547 13 0 0.0 3.2 0.00 0.00 0.00 1 1018.1
20260507114047 13 309 0.0 3.2 0.00 0.00 0.00 1 1018.3
20260507113547 13 55 1.6 4.8 0.00 0.00 0.00 1 1018.0
20260507113045 13 43 1.6 4.8 0.00 0.00 0.00 1 1017.9
20260507112543 14 346 1.6 4.8 0.00 0.00 0.00 1 1017.8
20260507112043 14 340 1.6 4.8 0.00 0.00 0.00 1 1017.8
20260507111544 14 21 0.0 6.4 0.00 0.00 0.00 1 1017.9
20260507111041 14 321 1.6 6.4 0.00 0.00 0.00 1 1018.0
20260507110541 14 318 1.6 3.2 0.00 0.00 0.00 1 1018.0
20260507110040 14 355 0.0 4.8 0.00 0.00 0.00 1 1017.7
20260507105540 14 315 0.0 4.8 0.00 0.00 0.00 1 1017.8
20260507105043 14 21 0.0 3.2 0.00 0.00 0.00 1 1017.9
20260507105039 14 328 0.0 3.2 0.00 0.00 0.00 1 1017.9
20260507104039 14 325 0.0 4.8 0.00 0.00 0.00 1 1018.0
20260507103541 14 302 1.6 8.0 0.00 0.00 0.00 1 1017.9
20260507103537 14 325 1.6 4.8 0.00 0.00 0.00 1 1018.0
20260507102537 14 345 1.6 8.0 0.00 0.00 0.00 1 1018.0
20260507102035 14 355 0.0 4.8 0.00 0.00 0.00 1 1017.8
20260507101534 14 336 0.0 4.8 0.00 0.00 0.00 1 1017.7
20260507101036 14 19 0.0 3.2 0.00 0.00 0.00 1 1017.6
20260507100538 14 78 0.0 3.2 0.00 0.00 0.00 1 1017.8
20260507100534 14 19 0.0 3.2 0.00 0.00 0.00 1 1017.6
20260507095533 14 25 1.6 4.8 0.00 0.00 0.00 1 1017.3
20260507095032 14 22 1.6 4.8 0.00 0.00 0.00 1 1017.1
20260507094531 14 355 1.6 4.8 0.00 0.00 0.00 1 1017.2
20260507094031 14 326 1.6 4.8 0.00 0.00 0.00 1 1017.3
20260507093529 14 119 1.6 4.8 0.00 0.00 0.00 1 1017.2
20260507093028 14 33 0.0 3.2 0.00 0.00 0.00 1 1017.2
20260507092526 14 317 0.0 3.2 0.00 0.00 0.00 1 1017.1
20260507092027 14 321 0.0 3.2 0.00 0.00 0.00 1 1017.0
20260507091630 14 17 1.6 6.4 0.00 0.00 0.00 1 1016.7
20260507091531 14 24 1.6 6.4 0.00 0.00 0.00 1 1016.6
20260507091526 14 20 0.0 4.8 0.00 0.00 0.00 1 1016.8
20260507090027 14 72 1.6 6.4 0.00 0.00 0.00 1 1016.5
20260507090023 14 69 1.6 6.4 0.00 0.00 0.00 1 1016.3
20260507085022 14 62 0.0 3.2 0.00 0.00 0.00 1 1016.2
20260507084522 14 34 1.6 4.8 0.00 0.00 0.00 1 1016.1
20260507084022 14 62 1.6 6.4 0.00 0.00 0.00 1 1016.0
20260507084018 14 95 1.6 6.4 0.00 0.00 0.00 1 1016.2
20260507083017 14 46 1.6 6.4 0.00 0.00 0.00 1 1015.9
20260507082517 14 51 1.6 6.4 0.00 0.00 0.00 1 1015.7
20260507082016 14 61 1.6 6.4 0.00 0.00 0.00 1 1015.9
20260507081520 14 325 1.6 4.8 0.00 0.00 0.00 1 1015.6
20260507081516 14 34 1.6 6.4 0.00 0.00 0.00 1 1015.8
20260507080516 14 342 1.6 11.3 0.00 0.00 0.00 1 1015.5
20260507080017 14 0 1.6 11.3 0.00 0.00 0.00 1 1015.2
20260507075517 14 355 1.6 4.8 0.00 0.00 0.00 1 1015.1
20260507075019 14 62 1.6 4.8 0.00 0.00 0.00 1 1015.3
20260507075015 14 53 1.6 4.8 0.00 0.00 0.00 1 1015.2
20260507074014 14 26 0.0 3.2 0.00 0.00 0.00 1 1015.2
20260507073515 14 19 1.6 3.2 0.00 0.00 0.00 1 1015.3
20260507073015 14 53 0.0 3.2 0.00 0.00 0.00 1 1015.2
20260507072514 14 355 0.0 4.8 0.00 0.00 0.00 1 1015.5
20260507072017 14 65 0.0 4.8 0.00 0.00 0.00 1 1015.6
20260507072013 14 32 0.0 4.8 0.00 0.00 0.00 1 1015.2
20260507071010 14 0 0.0 4.8 0.00 0.00 0.00 1 1015.1
20260507070509 14 61 0.0 3.2 0.00 0.00 0.00 1 1015.3
20260507070010 14 15 0.0 3.2 0.00 0.00 0.00 1 1015.4
20260507065504 14 15 0.0 3.2 0.00 0.00 0.00 1 1015.4
20260507065004 14 5 0.0 1.6 0.00 0.00 0.00 1 1015.4
20260507064503 14 24 0.0 3.2 0.00 0.00 0.00 1 1015.5
20260507063958 14 19 1.6 4.8 0.00 0.00 0.00 1 1015.5
20260507063458 14 50 0.0 4.8 0.00 0.00 0.00 1 1015.5
20260507062959 14 321 0.0 6.4 0.00 0.00 0.00 1 1015.5
20260507062459 14 0 1.6 6.4 0.00 0.00 0.00 1 1015.5
20260507061958 14 49 1.6 8.0 0.00 0.00 0.00 1 1015.4
20260507061458 14 58 1.6 9.7 0.00 0.00 0.00 1 1015.6
20260507060958 14 54 1.6 9.7 0.00 0.00 0.00 1 1015.6
20260507060458 14 44 1.6 6.4 0.00 0.00 0.00 1 1015.6
20260507055958 14 61 1.6 6.4 0.00 0.00 0.00 1 1015.8
20260507055458 15 0 1.6 12.9 0.00 0.00 0.00 1 1015.8
20260507054957 15 63 3.2 12.9 0.00 0.00 0.00 1 1015.7
20260507054456 15 60 3.2 14.5 0.00 0.00 0.00 1 1015.5
20260507053956 15 94 3.2 14.5 0.00 0.00 0.00 1 1015.6
20260507053456 15 65 3.2 8.0 0.00 0.00 0.00 1 1015.7
20260507052953 15 27 3.2 12.9 0.00 0.00 0.00 1 1015.7
20260507052453 15 61 3.2 12.9 0.00 0.00 0.00 1 1015.5
20260507051952 15 54 3.2 9.7 0.00 0.00 0.00 1 1015.4
20260507051452 15 64 3.2 6.4 0.00 0.00 0.00 1 1015.6
20260507050954 15 77 3.2 6.4 0.00 0.00 0.00 1 1015.5
20260507050950 15 324 3.2 8.0 0.00 0.00 0.00 1 1015.6
20260507045949 15 47 1.6 8.0 0.00 0.00 0.00 1 1015.6
20260507045451 15 69 1.6 8.0 0.00 0.00 0.00 1 1015.9
20260507044950 15 45 3.2 6.4 0.00 0.00 0.00 1 1015.8
20260507044450 15 44 1.6 6.4 0.00 0.00 0.00 1 1015.7
20260507043949 15 60 1.6 6.4 0.00 0.00 0.00 1 1015.6
20260507043453 15 44 1.6 4.8 0.00 0.00 0.00 1 1015.4
20260507043449 15 73 1.6 6.4 0.00 0.00 0.00 1 1015.4
20260507042555 15 53 1.6 4.8 0.00 0.00 0.00 1 1015.4
20260507042452 15 351 1.6 8.0 0.00 0.00 0.00 1 1015.5
20260507042448 15 59 1.6 8.0 0.00 0.00 0.00 1 1015.5
20260507040947 15 26 1.6 4.8 0.00 0.00 0.00 1 1015.6
20260507040445 15 68 1.6 4.8 0.00 0.00 0.00 1 1015.6
20260507035945 15 52 1.6 4.8 0.00 0.00 0.00 1 1015.7
20260507035446 15 39 1.6 4.8 0.00 0.00 0.00 1 1015.8
20260507034943 15 355 1.6 4.8 0.00 0.00 0.00 1 1015.7
20260507034443 15 30 1.6 6.4 0.00 0.00 0.00 1 1015.6
20260507033943 15 350 1.6 6.4 0.00 0.00 0.00 1 1015.8
20260507033445 16 12 1.6 3.2 0.00 0.00 0.00 1 1015.8
20260507033441 16 326 1.6 4.8 0.00 0.00 0.00 1 1015.9
20260507032442 16 309 1.6 4.8 0.00 0.00 0.00 1 1015.8
20260507031941 16 313 1.6 4.8 0.00 0.00 0.00 1 1015.9
20260507031439 16 246 1.6 4.8 0.00 0.00 0.00 1 1015.8
20260507030939 16 25 1.6 4.8 0.00 0.00 0.00 1 1015.7
20260507030439 16 53 1.6 3.2 0.00 0.00 0.00 1 1015.5
20260507025938 16 19 0.0 3.2 0.00 0.00 0.00 1 1015.5
20260507025437 16 50 1.6 3.2 0.00 0.00 0.00 1 1015.5
20260507024937 16 314 1.6 3.2 0.00 0.00 0.00 1 1015.6
20260507024436 16 311 1.6 4.8 0.00 0.00 0.00 1 1015.4
20260507023936 16 306 1.6 4.8 0.00 0.00 0.00 1 1015.4